Torna al catalogo

USA 471

AttivoMilitareVLEO
NORAD 62540·PAYLOAD·🇺🇸 United States

Lanciato Jan 10, 2025 da Vandenberg Space Force Base

Loading…

Prossimi Passaggi (prossime 24 ore)

TLE

ObsoletoSource: Mike McCants

Epoca: Aug 7, 2026, 23:58 UTC

1 62540U 25005J   26219.99901705 0.00000000  00000-0  00000-0 0    02
2 62540  70.0146 286.6783 0002000 242.2531 117.7469 14.96713163    04

Traccia USA 471 in tempo reale con AllMySat

Download on the App Store